User: anonymous   Login
Location: Bothwell
(42.3833°S, 147.0000°E)
Time: 23:44:48
(UTC+10:00)
Language:

ZACube-1 - Orbit

View from above orbital plane
View from above orbital plane
View from above satellite
View from above satellite

Ground track
Ground track

The orbit data is extracted from the following two-line orbital elements,

1 39417U 13066B   22274.13269323  .00003172  00000-0  38812-3 0  9994
2 39417  97.6492 240.9401 0058871  58.9718 301.7259 14.82660293478782
Epoch (UTC): 01 October 2022 03:11:04
Eccentricity: 0.0058871
inclination: 97.6492°
perigee height: 580 km
apogee height: 662 km
right ascension of ascending node: 240.9401°
argument of perigee: 58.9718°
revolutions per day: 14.82660293
mean anomaly at epoch: 301.7259°
orbit number at epoch: 47878

The dashed part of the orbit path shows where the satellite is in the earth's shadow,  

DLR